Location: California Institute of Technology
(34.1357°N, 118.1263°W)
Time: 21:50:36
(UTC-08:00)

Envisat - Visible Passes

Search period start: 17 January 2018 00:00
Search period end: 27 January 2018 00:00
Orbit: 764 x 766 km, 98.2° (Epoch: 17 January)

Date Brightness Start Highest point End Pass type
(mag) Time Alt. Az. Time Alt. Az. Time Alt. Az.
20 Jan 5.3 19:08:57 11° N 19:08:57 11° N 19:09:08 10° N visible
22 Jan 5.2 19:34:18 14° N 19:34:18 14° N 19:34:56 10° N visible
23 Jan 4.9 18:56:53 15° NNE 18:56:53 15° NNE 18:57:48 10° N visible
24 Jan 5.0 18:19:27 11° NE 18:19:27 11° NE 18:19:38 10° NNE visible
24 Jan 5.3 19:59:38 15° NNW 19:59:38 15° NNW 20:00:26 10° NNW visible
25 Jan 4.7 19:22:12 20° N 19:22:12 20° N 19:23:45 10° N visible
26 Jan 4.6 18:44:46 18° NNE 18:44:46 18° NNE 18:46:24 10° NNE visible
26 Jan 5.6 20:24:57 13° NW 20:24:57 13° NW 20:25:33 10° NW visible
